Regional Weather Roundup
Issued by NWS Goodland, KS

Home | Current Version | Previous Version | Graphics & Text | Print | Product List | Glossary On
Versions: 1 2 3 4 5 6 7 8 9 10 11 12 13 14 15 16 17 18 19 20 21 22 23 24 25 26 27 28 29 30 31 32 33 34 35 36 37 38 39 40 41 42 43 44 45 46 47 48 49 50
577
ASUS43 KGLD 230359
RWRGLD

GOODLAND FORECAST AREA HOURLY WEATHER ROUNDUP
NATIONAL WEATHER SERVICE GOODLAND KS
1000 PM MDT SAT JUL 22 2017

...OFFICIAL OBSERVATIONS...

CITY           SKY/WX    TMP DP  RH WIND       PRES   REMARKS
GOODLAND KS    CLEAR     68  54  60 CALM      30.10R
HILL CITY KS   PTCLDY    74  70  87 CALM      30.00R
IMPERIAL NEB   CLEAR     69  54  58 S6        30.09R
MCCOOK NEB     PTCLDY    70  60  70 N6        30.03S
AKRON CO       CLEAR     70  54  56 SE10      30.17R
BURLINGTON CO  CLEAR     68  51  54 CALM      30.15R
LIMON CO       CLOUDY    63  57  81 SE3       30.23R
$$

...UNOFFICIAL OBSERVATIONS...

CITY           SKY/WX    TMP DP  RH WIND       PRES   REMARKS
LENORA KS        N/A     73  32  22 MISG        N/A
NORTON KS      CLEAR     73  64  73 N7        30.00R
SHARON SPRINGS   N/A     67  53  61 CALM        N/A
TRENTON NEB      N/A     75  32  20 CALM        N/A
KIT CARSON CO    N/A     68  48  48 CALM        N/A
YUMA CO        FAIR      63  54  72 S6        30.13F
$$




USA.gov is the U.S. government's official web portal to all federal, state and local government web resources and services.